Home   Weather   Tallahassee   Past weeks
Flag for USA

Past Weather in Tallahassee, Florida, USA — Yesterday and Last 2 Weeks

Now
82 °F

Passing clouds.


Feels Like: 87 °F
Forecast: 97 / 73 °F
Wind: 3 mph from Southwest

Location: Tallahassee Regional Airport

Current Time: May 26, 2019 at 10:17:32 am

Latest Report: May 26, 2019 at 8:53 am


Visibility: 10 mi

Pressure: 30.16 "Hg

Humidity: 74%

Dew Point: 73 °F

Location of TallahasseeLocation

Past Weather in Tallahassee — Graph

°F

Tallahassee Temperature Yesterday

Maximum temperature yesterday: 97 °F (at 3:53 pm)
Minimum temperature yesterday: 65 °F (at 6:53 am)
Average temperature yesterday: 83 °F

High & Low Weather Summary for the Past Weeks

 TemperatureHumidityPressure
High97 °F (May 25, 3:53 pm)100% (May 12, 12:53 am)30.22 "Hg (May 12, 12:53 am)
Low54 °F (May 15, 5:53 am)24% (May 24, 5:53 pm)29.80 "Hg (May 12, 8:53 pm)
Average77 °F70%30.00 "Hg
* Reported May 11 8:53 am — May 26 8:53 am, Tallahassee. Weather by CustomWeather, © 2019

Note: Actual official high and low records may vary slightly from our data, if they occured in-between our weather recording intervals... More about our weather records

Advertising

Tallahassee Weather History for the Previous 24 Hours

Scroll right to see more
 ConditionsComfort  
Time TempWeatherWind HumidityBarometerVisibility
8:53 am
Sun, May 26
82 °FPassing clouds.3 mph74%30.16 "Hg10 mi
7:53 am76 °FFog.No wind88%30.14 "Hg6 mi
6:53 am73 °FSunny.No wind94%30.13 "Hg7 mi
5:53 am75 °FClear.No wind88%30.11 "Hg9 mi
4:53 am73 °FClear.No wind94%30.10 "Hg9 mi
3:53 am76 °FClear.No wind88%30.09 "Hg10 mi
2:53 am77 °FClear.No wind85%30.10 "Hg10 mi
1:53 am78 °FPassing clouds.3 mph82%30.09 "Hg7 mi
12:53 am78 °FPassing clouds.No wind79%30.09 "Hg10 mi
11:53 pm
Sat, May 25
80 °FPassing clouds.No wind74%30.09 "Hg10 mi
10:53 pm83 °FPassing clouds.No wind70%30.08 "Hg10 mi
9:53 pm87 °FPassing clouds.No wind61%30.08 "Hg10 mi
8:53 pm90 °FPassing clouds.5 mph56%30.07 "Hg10 mi
7:53 pm94 °FScattered clouds.7 mph43%30.06 "Hg10 mi
6:53 pm97 °FScattered clouds.5 mph36%30.05 "Hg10 mi
5:53 pm97 °FPartly sunny.8 mph37%30.06 "Hg10 mi
4:53 pm96 °FBroken clouds.5 mph38%30.06 "Hg10 mi
3:53 pm97 °FBroken clouds.No wind36%30.07 "Hg10 mi
2:53 pm96 °FPartly sunny.8 mph38%30.09 "Hg10 mi
1:53 pm96 °FPassing clouds.10 mph40%30.11 "Hg10 mi
12:53 pm94 °FPassing clouds.5 mph44%30.14 "Hg10 mi
11:53 am91 °FSunny.5 mph50%30.15 "Hg10 mi
10:53 am88 °FSunny.5 mph55%30.16 "Hg10 mi
Weather by CustomWeather, © 2019

See weather overview